Аэропорт
Дашогуз (UTAT)

 UTAT / TAZ
ЗЦ Центральная Азия
Дашогуз (UTAT)
Дашогуз (UTAT)
 41.76110, 59.82670  / 272 ft

 UTAT 191100Z 09006KT 010V140 CAVOK 34/09 Q1006 NOSIG

UTAT_aip_1705
показать схемы

Аэропорт Дашогуз — аэропорт в 10 км на юго-запад от Дашогуза, Туркмения. Основан в 1924 году.

Дашогуз является одним из старейших аэропортов Туркмении. Первый авиарейс выполнен в 1924 году. В 2009 году завершена реконструкция здания аэровокзала. 



2019 © VATRUS division (Privacy Policy)